sat.trackr.live / text

‹ back to catalog

STARLINK-2237

NORAD 48583 · 2021-041AG

PAYLOAD ACTIVE UNKNOWN

§ Identity

Operator
Country
US
Launch date
2021-05-15
Launch site
AFETR
Launch vehicle
Mass (kg)
RCS (m²)

Purposes: comms

External: N2YO · Heavens-Above · Gunter

§ Orbital elements

Epoch: 2026-09-19T16:02:18.811392Z

Period
94.01 min
Inclination
53.1608°
Eccentricity
0.0001210
Mean motion
15.31718273 rev/d
Perigee alt
469.9 km
Apogee alt
471.5 km
Semi-major
6,848.8 km
B*
8.9883e-5
RAAN
326.2456°
Arg perigee
89.6783°
Mean anomaly
270.4357°
Rev number
29,467

§ Raw data

STARLINK-22371 48583U 21041AG  26262.66827328  .00002427  00000+0  89883-4 0  99902 48583  53.1608 326.2456 0001210  89.6783 270.4357 15.31718273294670

JSON: /api/v1/satellites/48583 · /tle

For live sub-satellite position, see the globe view (requires WebGL).

§ Visibility from observer

Set your observer location to see the next 7 days of passes ≥ 10°. The values pass through the URL so the page stays shareable.

No JS? Fill the form by hand. The geolocation button needs JavaScript.